Погода в Бокине

Россия / Тамбовская область     52°38′18″N   41°27′38″E
темп.,
°C
ветер,
м/с
пор.,
м/с
влажн.,
%
обл.,
%
осадки,
мм/ч
давл.,
гПа
погр.,
м
10 апреля, сб
сб1000:00+2с356885 0.0 102689
03:00+1ссв3877100 0.0 1027164
06:00+1ссв3786100 0.0 1027125
09:00+6св4760100 0.0 1027559
12:00+9св67445 0.0 10251126
15:00+10св5641100 0.0 10251253
18:00+8св475214 0.0 1025616
21:00+4ссв37762 0.0 1026180
11 апреля, вс
вс1100:00+2с498121 0.0 1026188
03:00+2с41080100 0.0 1027245
06:00+1ссв41183100 0.0 1028277
09:00+6ссв61155100 0.0 1029538
12:00+11св6937100 0.0 1028866
15:00+12св7838100 0.0 1028948
18:00+10св61063100 0.0 1028799
21:00+7всв51088100 0.0 1029465
12 апреля, пн
пн1200:00+6св4893100 0.0 1029272
03:00+6св3896100 0.0 1028207
06:00+6св3995100 0.0 1028212
09:00+10в4677100 0.0 1028301
12:00+17вюв4750100 0.0 1027609
15:00+21вюв573898 0.0 10261342
18:00+17вюв4946100 0.0 1026197
21:00+13вюв41264100 0.0 1027217
13 апреля, вт
вт1300:00+11вюв4127197 0.0 1027218
03:00+9вюв410745 0.0 1027158
06:00+8вюв310695 0.0 1027173
09:00+14юв594712 0.0 1027449
12:00+18юв58366 0.0 10261055
15:00+20ююв573149 0.0 10251754
18:00+17юв3746100 0.0 1025145
21:00+12юв411605 0.0 1026193
14 апреля, ср
ср1400:00+11юв4116360 0.0 1026182
03:00+9вюв356786 0.0 102564
06:00+8вюв3970100 0.0 1025151
09:00+14юв594898 0.0 1024414
12:00+19юв683320 0.0 10221212
15:00+20юв6828100 0.0 10212103
18:00+17юв3643100 0.0 1020141
21:00+12вюв4105759 0.0 1020181